EN

Hourly Weather Barr

Today, 22 January, Friday

Time Temperature Precipitation Wind Pressure Humidity
00:00 +4°C° 0.5 mm 6 mps 720 mmHg 89%
01:00 +4°C° 0.1 mm 6 mps 719 mmHg 87%
02:00 +4°C° 0.1 mm 6 mps 719 mmHg 86%
03:00 +4°C° 0.1 mm 6 mps 719 mmHg 85%
04:00 +4°C° 0.2 mm 6 mps 718 mmHg 85%
05:00 +5°C° 0.2 mm 6 mps 718 mmHg 86%
06:00 +5°C° 0.2 mm 6 mps 718 mmHg 86%
07:00 +6°C° 0.3 mm 5 mps 718 mmHg 87%
08:00 +6°C° 0.3 mm 5 mps 718 mmHg 87%
09:00 +6°C° 0.3 mm 4 mps 718 mmHg 87%
10:00 +7°C° 0.1 mm 4 mps 718 mmHg 84%
11:00 +8°C° 0.1 mm 3 mps 718 mmHg 81%
12:00 +9°C° 0.1 mm 2 mps 718 mmHg 79%
13:00 +9°C° 0.1 mm 2 mps 718 mmHg 82%
14:00 +8°C° 0.1 mm 2 mps 717 mmHg 84%
15:00 +7°C° 0.1 mm 2 mps 717 mmHg 87%
16:00 +6°C° 1 mm 2 mps 717 mmHg 90%
17:00 +6°C° 1 mm 2 mps 717 mmHg 93%
18:00 +5°C° 1 mm 2 mps 717 mmHg 95%
19:00 +3°C° 1.1 mm 3 mps 718 mmHg 96%
20:00 +2°C° 1.1 mm 3 mps 718 mmHg 96%
21:00 +1°C° 1.1 mm 4 mps 719 mmHg 96%
22:00 +1°C° 0.9 mm 3 mps 719 mmHg 95%
23:00 +1°C° 0.9 mm 3 mps 720 mmHg 95%

Tomorrow, 23 January, Saturday

Time Temperature Precipitation Wind Pressure Humidity
00:00 +1°C° 0.9 mm 3 mps 720 mmHg 94%
01:00 +1°C° 0.2 mm 3 mps 721 mmHg 94%
02:00 +1°C° 0.2 mm 3 mps 721 mmHg 93%
03:00 +1°C° 0.2 mm 3 mps 722 mmHg 93%
04:00 +2°C° 0 mm 2 mps 722 mmHg 93%
05:00 +2°C° 0 mm 2 mps 722 mmHg 93%
06:00 +1°C° 0 mm 2 mps 722 mmHg 93%
07:00 +2°C° 0 mm 2 mps 722 mmHg 92%
08:00 +2°C° 0 mm 2 mps 721 mmHg 91%
09:00 +3°C° 0 mm 2 mps 721 mmHg 89%
10:00 +3°C° 0 mm 2 mps 721 mmHg 87%
11:00 +4°C° 0 mm 2 mps 721 mmHg 84%
12:00 +4°C° 0 mm 2 mps 721 mmHg 81%
13:00 +4°C° 0 mm 2 mps 720 mmHg 81%
14:00 +5°C° 0 mm 1 mps 720 mmHg 82%
15:00 +5°C° 0 mm 1 mps 720 mmHg 82%
16:00 +4°C° 0 mm 1 mps 720 mmHg 84%
17:00 +3°C° 0 mm 1 mps 720 mmHg 87%
18:00 +2°C° 0 mm 1 mps 720 mmHg 89%
19:00 +2°C° 0.2 mm 1 mps 720 mmHg 90%
20:00 +2°C° 0.2 mm 1 mps 720 mmHg 91%
21:00 +2°C° 0.2 mm 1 mps 720 mmHg 92%
22:00 +2°C° 0.5 mm 1 mps 720 mmHg 93%
23:00 +1°C° 0.5 mm 2 mps 720 mmHg 94%

Day after tomorrow, 24 January, Sunday

Time Temperature Precipitation Wind Pressure Humidity
00:00 +2°C° 0.5 mm 2 mps 721 mmHg 95%
01:00 0°C° 1 mm 3 mps 721 mmHg 94%
02:00 0°C° 1 mm 3 mps 721 mmHg 93%
03:00 -2°C° 1 mm 4 mps 721 mmHg 92%
04:00 -1°C° 0.2 mm 3 mps 722 mmHg 93%
05:00 -1°C° 0.2 mm 3 mps 723 mmHg 94%
06:00 -1°C° 0.2 mm 2 mps 723 mmHg 94%
07:00 -1°C° 0.1 mm 2 mps 724 mmHg 92%
08:00 -1°C° 0.1 mm 2 mps 724 mmHg 89%
09:00 -1°C° 0.1 mm 2 mps 725 mmHg 86%
10:00 +1°C° 0 mm 2 mps 724 mmHg 82%
11:00 +2°C° 0 mm 2 mps 724 mmHg 77%
12:00 +2°C° 0 mm 2 mps 724 mmHg 73%
13:00 +2°C° 0 mm 2 mps 723 mmHg 75%
14:00 +3°C° 0 mm 1 mps 723 mmHg 76%
15:00 +3°C° 0 mm 1 mps 723 mmHg 78%
16:00 +2°C° 0.1 mm 1 mps 723 mmHg 81%
17:00 +2°C° 0.1 mm 1 mps 723 mmHg 84%
18:00 -1°C° 0.1 mm 2 mps 723 mmHg 87%
19:00 -1°C° 0.6 mm 2 mps 723 mmHg 90%
20:00 -1°C° 0.6 mm 2 mps 723 mmHg 92%
21:00 -1°C° 0.6 mm 2 mps 722 mmHg 95%
22:00 -1°C° 0.4 mm 2 mps 723 mmHg 95%
23:00 -1°C° 0.4 mm 2 mps 723 mmHg 95%

25 January, Monday

Time Temperature Precipitation Wind Pressure Humidity
00:00 -1°C° 0.4 mm 2 mps 723 mmHg 95%
01:00 -2°C° 0.2 mm 2 mps 724 mmHg 95%
02:00 -2°C° 0.2 mm 2 mps 724 mmHg 95%
03:00 0°C° 0.2 mm 1 mps 725 mmHg 95%
04:00 -2°C° 0.2 mm 2 mps 726 mmHg 95%
05:00 -2°C° 0.2 mm 2 mps 727 mmHg 95%
06:00 -2°C° 0.2 mm 2 mps 728 mmHg 94%
07:00 -2°C° 0.1 mm 2 mps 728 mmHg 92%
08:00 -2°C° 0.1 mm 3 mps 729 mmHg 90%
09:00 -1°C° 0.1 mm 3 mps 730 mmHg 88%
10:00 -2°C° 0.1 mm 4 mps 730 mmHg 84%
11:00 -2°C° 0.1 mm 4 mps 731 mmHg 81%
12:00 -1°C° 0.1 mm 4 mps 731 mmHg 78%
13:00 -1°C° 0.6 mm 4 mps 731 mmHg 84%
14:00 -1°C° 0.6 mm 4 mps 731 mmHg 89%
15:00 -2°C° 0.6 mm 4 mps 731 mmHg 95%
16:00 -2°C° 0.9 mm 4 mps 731 mmHg 95%
17:00 -2°C° 0.9 mm 4 mps 731 mmHg 95%
18:00 -1°C° 0.9 mm 4 mps 732 mmHg 95%
19:00 -1°C° 0.4 mm 4 mps 732 mmHg 96%
20:00 -1°C° 0.4 mm 4 mps 732 mmHg 96%
21:00 -1°C° 0.4 mm 4 mps 733 mmHg 96%
22:00 -2°C° 0.3 mm 4 mps 733 mmHg 96%
23:00 -2°C° 0.3 mm 4 mps 734 mmHg 97%

26 January, Tuesday

Time Temperature Precipitation Wind Pressure Humidity
00:00 -2°C° 0.3 mm 4 mps 734 mmHg 97%
01:00 -2°C° 0.1 mm 4 mps 734 mmHg 95%
02:00 -2°C° 0.1 mm 4 mps 734 mmHg 94%
03:00 -2°C° 0.1 mm 4 mps 734 mmHg 93%
04:00 -2°C° 0 mm 4 mps 734 mmHg 93%
05:00 -1°C° 0 mm 3 mps 735 mmHg 92%
06:00 -1°C° 0 mm 3 mps 735 mmHg 92%
07:00 -1°C° 0 mm 3 mps 735 mmHg 92%
08:00 -1°C° 0 mm 3 mps 736 mmHg 92%
09:00 0°C° 0 mm 3 mps 736 mmHg 92%
10:00 0°C° 0.1 mm 3 mps 736 mmHg 91%
11:00 +1°C° 0.1 mm 3 mps 736 mmHg 90%
12:00 +1°C° 0.1 mm 3 mps 737 mmHg 89%
13:00 +1°C° 0 mm 3 mps 736 mmHg 89%
14:00 +1°C° 0 mm 3 mps 736 mmHg 89%
15:00 +1°C° 0 mm 3 mps 736 mmHg 90%
16:00 +1°C° 0 mm 3 mps 736 mmHg 91%
17:00 +1°C° 0 mm 3 mps 735 mmHg 92%
18:00 0°C° 0 mm 3 mps 735 mmHg 93%
19:00 0°C° 0.4 mm 3 mps 735 mmHg 94%
20:00 -1°C° 0.4 mm 4 mps 735 mmHg 95%
21:00 -1°C° 0.4 mm 4 mps 734 mmHg 96%
22:00 -1°C° 0.4 mm 4 mps 734 mmHg 97%
23:00 -1°C° 0.4 mm 5 mps 733 mmHg 97%

27 January, Wednesday

Time Temperature Precipitation Wind Pressure Humidity
00:00 0°C° 0.4 mm 5 mps 732 mmHg 97%
01:00 0°C° 0.4 mm 5 mps 732 mmHg 96%
02:00 +1°C° 0.4 mm 5 mps 732 mmHg 96%
03:00 +1°C° 0.4 mm 5 mps 731 mmHg 95%
04:00 +2°C° 0.4 mm 5 mps 732 mmHg 95%
05:00 +2°C° 0.4 mm 5 mps 732 mmHg 95%
06:00 +2°C° 0.4 mm 5 mps 733 mmHg 94%
07:00 +3°C° 0.1 mm 4 mps 733 mmHg 94%
08:00 +3°C° 0.1 mm 4 mps 734 mmHg 93%
09:00 +3°C° 0.1 mm 4 mps 735 mmHg 93%
10:00 +4°C° 0.1 mm 4 mps 735 mmHg 92%
11:00 +4°C° 0.1 mm 4 mps 736 mmHg 91%
12:00 +4°C° 0.1 mm 4 mps 736 mmHg 89%
13:00 +4°C° 0.1 mm 4 mps 736 mmHg 90%
14:00 +4°C° 0.1 mm 3 mps 737 mmHg 90%
15:00 +4°C° 0.1 mm 3 mps 737 mmHg 91%
16:00 +4°C° 0 mm 3 mps 737 mmHg 91%
17:00 +3°C° 0 mm 3 mps 738 mmHg 92%
18:00 +3°C° 0 mm 3 mps 738 mmHg 92%
19:00 +3°C° 0 mm 3 mps 738 mmHg 93%
20:00 +3°C° 0 mm 3 mps 738 mmHg 93%
21:00 +3°C° 0 mm 3 mps 738 mmHg 93%
22:00 +2°C° 0 mm 3 mps 737 mmHg 93%
23:00 +2°C° 0 mm 3 mps 737 mmHg 93%
Show more

We Need Your Consent

Meteoprog and our Service Providers may store and access personal data such as cookies, device identifiers or other similar technologies on your device and process such data to personalise content and ads, as well as provide social media features and to analyse the traffic.

  • Store and/or access information on your device

    Cookies, device identifiers or other information can be stored or accessed on your device for the purposes indicated above.

  • Personalised ads and content, ad and content measurement, audience insights, and products development

    Ads and content can be personalised based on a profile. More data can be added to better personalise ads and content. Ad and content performance can be measured. Insights about the audience who saw the ads and content can be derived. Such data can be used to develop or improve user’s experience, systems and software.

By clicking ‘I Agree’ you will allow the use of indicated cookies, device identifiers, web beacons or other similar technologies. Your settings can be changed in the browser on your device.

For certain purposes, legitimate interests may be relied on, rather than consent. You can read more about this in our Privacy and Cookie Policy.